logo dgac
Miércoles 26 de Junio del 2019
Buscar por aerodromo o helipuerto
Ingrese nombre de aeródromo, localidad o designador OACI:

Aeródromo: Alto Palena (PUB) (SCAP)

Ubicación: Palena, X Región, Chile (43º 36' 42'' S, 71º 48' 19'' W) Ver ubicación en el mapa

Pistas

Orientación Dimensión Pendiente Superficie Resistencia APCH THR RWY PAPI
07/25 876 x 18 0,50 ASPH PCN 27 F/A/Y/T No No No No
Horas de operación HJ
Elevación 273 m / 897 ft
Otra Información Adm : DGAC
Uso : PUB
TEL 652486286
Ubicado a 1 km N de Palena


Cámaras de Aeródromos. www.dgac.gob.cl.

Otra información ver AIP-Chile Volumen I AD 3.9-15.2-P
CCCM/FCCV Descargar
andera de Chile
Mapa de Alto Palena (PUB) (SCAP)

Último METAR

METAR SCAP 261100Z AUTO VRB02KT 9999 RA ////// 04/03 Q0997

Último TAF

No hay tafs registrados para este aeródromo

Últimas fotos cámaras

Imagen aerodromo Alto Palena (PUB) (SCAP) Oeste tomada el 25-06-2019 11:11:29 Imagen aerodromo Alto Palena (PUB) (SCAP) Este tomada el 25-06-2019 03:16:30

Último NOTAM

C2023/19 NOTAMN Q)SCTZ/QXXLT/IV/NBO/AE/000/999/4337S07148W005 A)SCAP B)1906172102 C)1907012100 E)CAMARAS WEB DIRECCION E Y W INACTIVAS

LLegadas a Alto Palena (PUB) (SCAP)

En vuelo

Vuelo Procedencia Hora Despegue Local Hora Arribo Local

Salidas de Alto Palena (PUB) (SCAP)

En vuelo

Vuelo Hacia Hora Despegue Local Hora Arribo Local